Location: *
(31.2983°S, 151.4094°E)
Time: 22:37:46
(UTC+00:00)

Cosmos 1943 Rocket - Pass Details

Date: 25 August 2019
Orbit: 812 x 844 km, 71.0° (Epoch: 16 September)

Event Time Altitude Azimuth Distance (km) Brightness Sun altitude
Rises 19:00:22 0° 190° (S) 3,404 5.2 -17.4°
Reaches altitude 10° 19:03:03 10° 181° (S) 2,458 4.6 -16.9°
Maximum altitude 19:08:10 35° 116° (ESE) 1,317 3.8 -15.8°
Drops below altitude 10° 19:13:11 10° 50° (NE) 2,414 5.4 -14.7°
Sets 19:15:47 0° 41° (NE) 3,334 6.0 -14.1°
